GEFSSGP_con_probscp_084.txt.gz
Probability
0 0 0 0 0 0 0 0 0 0 0 0 0 0 0 0 0 0 0 0 0 0 0 1 2 3 2 1 1 1 0 0 0 0 0 0 0 0 0 0 0 0 0 0 0 0 0 0 0
0 0 0 0 0 0 0 0 0 0 0 0 0 0 0 0 0 0 0 0 0 1 1 3 5 5 4 3 3 2 1 0 0 0 0 0 0 0 0 0 0 0 0 0 0 0 0 0 0
0 0 0 0 0 0 0 0 0 0 0 0 0 0 0 0 0 0 0 0 1 3 5 7 11 12 10 9 7 5 2 0 0 0 0 0 0 0 0 0 0 0 0 0 0 0 0 0 0
0 0 0 0 0 0 0 0 0 0 0 0 0 0 0 0 0 0 0 1 3 7 9 15 23 22 16 14 12 8 4 1 1 1 1 1 1 0 0 0 0 0 0 0 0 0 0 0 0
0 0 0 0 0 0 0 0 0 0 0 0 0 0 0 0 0 0 1 2 6 11 15 24 37 36 25 18 16 12 7 4 3 3 2 2 1 0 0 0 0 0 0 0 0 0 0 0 0
0 0 0 0 0 0 0 0 0 0 0 0 0 0 0 0 0 0 1 3 7 14 20 29 43 46 36 25 21 19 14 10 7 4 2 1 1 0 0 0 0 0 0 0 0 0 0 0 0
0 0 0 0 0 0 0 0 0 0 0 0 0 0 0 0 1 2 3 4 8 15 23 31 38 43 40 33 29 26 21 14 9 5 2 0 0 0 0 0 0 0 0 0 0 0 0 0 0
0 0 0 0 0 0 0 0 0 0 0 0 0 0 0 3 7 9 9 9 11 16 24 33 37 38 40 39 36 30 23 15 10 6 4 2 1 1 1 0 0 0 0 0 0 0 0 0 0
0 0 0 0 0 0 0 0 0 0 0 0 0 1 6 14 20 21 19 16 15 18 26 35 41 43 46 45 38 31 23 15 11 10 7 5 5 4 3 2 1 0 0 0 0 0 0 0 1
0 0 0 0 0 0 0 0 0 0 0 0 0 6 21 36 37 31 26 22 18 18 24 34 42 48 52 49 40 34 29 22 17 15 11 9 9 9 6 5 3 2 2 1 2 3 4 4 5
0 0 0 0 0 0 0 0 0 0 0 0 2 15 39 55 52 41 33 26 20 18 24 33 43 53 56 51 42 38 36 32 25 21 18 15 14 13 10 8 8 8 6 4 5 7 9 11 11
0 0 0 0 0 0 0 0 0 0 1 2 7 22 46 62 61 52 43 34 26 24 28 36 47 56 58 52 43 39 38 36 30 26 25 22 18 15 12 12 13 12 9 7 8 9 10 13 16
0 0 0 0 0 0 0 1 1 2 3 6 14 26 43 58 63 59 53 46 39 34 34 39 48 53 51 47 42 39 39 39 33 29 28 26 22 17 14 13 13 11 8 7 7 8 8 12 15
0 0 0 0 0 0 1 2 4 6 9 13 21 30 41 53 61 60 57 53 49 45 41 42 45 43 39 38 38 39 41 41 36 30 28 29 26 21 16 13 10 7 7 7 7 7 7 8 10
0 0 0 0 0 0 1 3 7 10 15 21 27 34 44 54 59 57 53 50 50 49 47 46 45 40 34 32 34 35 37 38 35 29 26 28 26 22 18 12 7 4 5 7 8 8 6 5 5
0 0 0 0 0 0 1 4 8 14 19 25 31 38 45 50 52 51 46 43 44 47 47 49 48 42 35 33 33 33 34 34 31 27 24 21 19 18 15 10 5 3 4 6 8 8 5 2 1
0 0 0 0 0 1 2 6 10 15 21 27 31 36 39 40 40 41 40 38 38 38 40 45 46 42 38 36 34 34 33 31 29 27 22 14 10 10 8 6 4 3 3 3 4 4 3 1 0
0 0 0 0 0 1 4 9 11 13 19 26 27 28 30 31 32 33 33 31 30 30 31 35 37 37 37 34 32 30 29 28 27 24 18 10 6 4 3 2 2 2 1 1 1 1 1 0 0
0 0 0 0 0 2 5 8 8 9 15 20 21 21 23 25 27 29 27 24 24 25 25 25 26 28 28 26 24 23 21 20 19 16 12 8 4 3 2 1 1 1 0 0 0 0 0 0 0
0 0 0 0 0 1 3 4 5 8 11 12 13 14 15 19 22 22 20 19 21 21 18 15 15 16 17 16 15 14 12 10 10 8 6 5 4 4 3 1 0 0 0 0 0 0 0 0 0
0 0 0 0 0 1 2 2 3 7 9 8 6 7 10 13 14 12 11 13 15 13 10 8 8 7 7 6 6 6 4 4 4 3 2 2 3 4 3 2 0 0 0 0 0 0 0 0 0
0 0 0 0 0 0 1 1 2 5 6 5 4 4 6 8 7 5 4 6 8 7 6 4 3 2 2 1 2 2 1 1 1 1 1 1 2 3 3 2 1 0 0 0 0 0 0 0 0
0 0 0 0 0 0 0 0 1 2 2 2 1 1 2 2 2 1 1 2 3 3 3 2 1 1 1 1 1 2 1 0 0 0 0 1 1 2 2 2 1 0 0 0 0 0 0 0 0
0 0 0 0 0 0 0 0 0 0 0 0 0 0 0 0 0 0 0 1 1 1 1 1 0 0 1 2 2 2 2 1 0 0 0 0 0 1 1 1 0 0 0 0 0 0 0 0 0
0 0 0 0 0 0 0 0 0 0 0 0 0 0 0 0 0 0 0 0 0 0 0 0 0 0 1 1 1 1 1 1 0 0 0 0 0 0 0 0 0 0 0 0 0 0 0 0 1
0 0 0 0 0 0 0 0 0 0 0 0 0 0 0 0 0 0 0 0 0 0 0 0 0 0 0 0 0 0 0 0 0 0 0 0 0 0 0 0 0 0 0 0 0 0 0 0 1
0 0 0 0 0 0 0 0 0 0 0 0 0 0 0 0 0 0 0 0 0 0 0 0 0 0 0 0 0 0 0 0 0 0 0 0 0 0 0 0 0 0 0 0 0 0 0 0 1
0 0 0 0 0 0 0 0 0 0 0 0 0 0 0 0 0 0 0 0 0 0 0 0 0 0 0 0 0 0 0 0 0 0 0 0 0 0 0 0 0 0 0 0 0 0 0 0 0
0 0 0 0 0 0 0 0 0 0 0 0 0 0 0 0 0 0 0 0 0 0 0 0 0 0 0 0 0 0 0 0 0 0 0 0 0 0 0 0 0 0 0 0 0 0 0 0 0
0 0 0 0 0 0 0 0 0 0 0 0 0 0 0 0 0 0 0 0 0 0 0 0 0 0 0 0 0 0 0 0 0 0 0 0 0 0 0 0 0 0 0 0 0 0 0 0 0

GEFSSGP_con_probscp_090.txt.gz
Probability
0 0 0 0 0 0 0 0 0 0 0 0 0 0 0 0 0 0 0 0 1 5 6 2 0 0 0 0 0 0 0 0 0 0 0 0 0 0 0 0 0 0 0 0 0 0 0 0 0
0 0 0 0 0 0 0 0 0 0 0 0 0 0 0 0 0 0 0 0 1 4 5 3 1 0 0 0 0 0 0 0 0 0 0 0 0 0 0 0 0 0 0 0 0 0 0 0 0
0 0 0 0 0 0 0 0 0 0 0 0 0 0 0 0 0 0 0 0 1 3 4 5 3 1 0 0 1 1 1 1 1 1 0 0 0 0 0 0 0 0 0 0 0 0 0 0 0
0 0 0 0 0 0 0 0 0 0 0 0 0 0 0 1 1 0 0 0 1 2 5 7 6 2 0 0 1 2 3 4 4 4 3 2 1 0 0 0 0 0 0 0 0 0 0 0 0
0 0 0 0 0 0 0 0 0 0 0 0 0 0 1 2 2 1 0 0 1 2 6 9 7 2 0 0 0 2 4 6 6 7 7 4 1 0 0 0 0 0 0 0 0 0 0 0 0
0 0 0 0 0 0 0 0 0 0 0 0 0 0 1 4 5 4 2 1 1 2 6 10 9 3 1 2 1 3 5 7 8 9 9 5 1 0 0 0 0 0 0 0 0 0 0 0 0
0 0 0 0 0 0 0 0 0 0 0 0 0 0 2 8 13 12 7 4 3 3 7 10 9 5 3 3 4 6 9 10 11 11 10 7 4 2 1 0 0 0 0 0 0 0 0 0 0
0 0 0 0 0 0 0 0 0 0 0 0 0 0 8 23 34 31 23 14 10 8 8 9 9 7 5 4 7 11 14 15 16 15 13 10 6 3 2 1 1 1 0 0 0 0 0 0 0
0 0 0 0 0 0 0 0 0 0 0 0 1 4 21 48 60 56 46 35 26 18 12 10 10 9 6 6 9 13 15 18 19 19 19 14 7 4 4 6 7 5 1 0 0 0 0 0 0
0 0 0 0 0 0 0 0 0 0 0 0 3 11 32 57 70 68 62 54 44 33 24 19 18 16 12 11 14 16 20 24 25 27 29 25 17 13 10 13 17 13 6 3 3 3 1 0 1
0 0 0 0 0 0 0 0 1 2 2 2 5 17 34 49 59 62 61 59 54 47 39 35 34 33 28 25 25 26 31 37 38 38 43 44 39 33 27 26 28 25 19 13 12 10 5 2 3
0 0 0 0 0 0 0 1 3 7 8 8 11 21 30 40 48 53 56 58 60 58 53 49 53 56 54 49 46 43 44 49 51 52 56 59 59 53 46 42 39 37 33 26 23 20 12 6 5
0 0 0 0 0 0 1 2 6 13 17 17 22 29 34 42 51 59 62 63 66 66 62 60 66 74 76 74 67 60 57 56 59 63 65 67 67 63 56 53 48 43 38 33 29 23 16 11 11
0 0 0 0 0 0 1 4 11 20 25 30 37 44 49 57 67 74 75 71 68 68 67 69 76 84 86 83 78 71 66 64 64 66 66 66 64 60 57 55 49 42 38 36 29 21 17 17 16
0 0 0 0 0 0 1 7 17 27 32 40 50 57 64 71 79 84 84 78 72 70 70 72 77 82 83 82 79 73 68 66 65 62 59 55 53 53 55 55 49 42 37 35 29 20 18 19 18
0 0 0 0 0 0 2 9 20 28 34 42 52 59 65 70 76 81 83 81 78 75 72 71 69 72 74 75 74 70 65 62 59 55 49 46 46 48 51 52 48 40 34 30 25 20 17 17 16
0 0 0 0 0 0 3 10 18 24 27 34 44 54 59 61 64 68 71 73 75 73 70 65 63 63 65 65 65 64 60 54 49 45 43 42 43 44 45 44 41 34 28 24 21 17 15 14 12
0 0 0 0 0 0 3 8 12 15 19 25 35 45 52 52 50 52 55 58 60 60 58 56 58 60 59 57 56 53 49 43 38 35 34 35 36 37 37 36 33 28 23 22 20 16 13 11 9
0 0 0 0 0 0 2 5 7 10 15 20 27 36 42 40 36 37 40 43 45 45 43 42 47 51 52 51 46 40 35 31 28 24 21 20 22 25 28 30 29 25 21 22 19 14 10 8 7
0 0 0 0 0 0 2 4 7 11 15 19 22 26 28 27 25 26 28 31 33 33 31 29 32 37 40 40 33 27 24 22 18 14 12 11 11 13 18 24 26 23 19 18 15 10 7 6 6
0 0 0 0 0 0 1 4 9 13 15 16 16 15 14 14 16 17 18 19 21 21 20 18 20 23 25 24 20 17 18 17 13 11 11 11 9 10 14 19 21 19 16 13 10 7 6 5 5
0 0 0 0 0 0 0 5 10 12 13 13 9 6 5 6 8 9 8 10 11 11 11 11 13 14 13 12 11 13 14 14 11 11 12 11 9 9 12 15 17 18 16 13 9 7 5 4 4
0 0 0 0 0 0 0 6 13 12 10 10 5 2 1 1 2 4 5 7 8 7 6 7 9 10 10 10 11 13 13 11 10 10 11 10 9 8 8 11 15 19 18 16 15 12 8 6 6
0 0 0 0 0 0 0 7 16 14 9 8 5 2 1 1 2 4 7 8 7 5 5 5 6 8 10 12 12 12 13 11 8 8 9 9 8 7 7 8 12 17 18 20 22 21 15 13 14
0 0 0 0 0 0 0 6 13 12 7 6 4 3 2 1 2 4 5 5 3 2 3 3 4 6 9 11 12 12 12 10 7 7 8 8 6 7 7 7 9 12 14 17 22 24 22 21 24
0 0 0 0 0 0 1 6 10 7 3 2 2 2 2 1 1 1 1 1 0 0 1 1 2 4 6 7 8 9 9 7 6 6 8 7 6 5 6 6 6 6 6 8 13 17 21 23 25
0 0 0 0 0 0 2 7 8 4 1 0 0 0 1 1 0 0 0 0 0 0 0 0 1 1 2 3 4 4 4 4 5 6 7 7 6 4 5 6 5 3 1 2 4 8 14 20 21
0 0 0 0 0 0 1 4 5 2 0 0 0 0 0 0 0 0 0 0 0 0 0 0 0 0 1 2 2 1 1 2 5 6 6 6 6 5 5 5 4 2 1 0 1 2 6 12 15
0 0 0 0 0 0 0 0 1 1 0 0 0 0 0 0 0 0 0 0 0 0 0 0 0 0 0 1 1 0 0 1 3 5 5 4 5 5 4 3 2 1 0 0 0 0 2 4 6
0 0 0 0 0 0 0 0 0 0 0 0 0 0 0 0 0 0 0 0 0 0 0 0 0 0 0 0 1 0 0 0 1 3 3 2 3 3 2 1 0 0 0 0 0 0 0 0 1

GEFSSGP_con_probscp_096.txt.gz
Probability
0 0 0 0 0 0 1 1 1 0 0 0 0 0 0 0 0 0 1 14 41 49 31 22 23 18 9 4 2 0 0 0 0 0 0 0 0 0 0 0 0 0 0 0 0 0 0 0 0
0 0 0 0 0 0 0 0 0 0 0 0 0 0 0 0 0 0 3 21 46 47 28 21 25 22 13 7 3 1 0 0 0 0 0 0 0 0 0 0 0 0 0 0 0 0 0 0 0
0 0 0 0 1 1 0 0 0 0 0 0 0 1 1 1 0 1 7 27 46 41 24 24 28 24 17 11 6 3 1 1 0 0 0 0 0 0 0 0 0 0 0 0 0 0 0 0 0
0 0 0 0 0 1 1 0 0 0 0 0 1 3 4 3 1 1 8 25 38 35 26 28 30 25 19 14 9 5 3 2 1 0 0 0 0 1 1 1 1 1 0 0 0 0 0 0 0
0 0 0 0 0 0 0 0 0 0 0 0 3 8 9 4 1 1 6 17 31 38 37 35 35 31 26 19 12 7 4 3 2 1 1 1 2 3 4 3 2 2 1 0 0 0 0 0 0
0 0 0 0 0 0 0 0 0 0 0 0 3 11 13 6 1 1 3 10 28 49 53 44 40 38 33 25 16 10 7 5 4 3 3 5 6 7 6 5 5 5 4 3 1 1 0 0 0
0 0 0 0 0 0 0 0 0 0 0 0 4 13 18 11 3 1 2 7 30 59 65 49 40 38 32 24 18 15 13 11 8 5 5 6 8 9 10 11 12 12 11 9 6 4 2 0 0
0 0 0 0 0 0 0 0 0 0 1 3 7 14 20 15 6 4 3 9 33 64 68 48 37 33 24 18 19 22 22 19 16 12 10 9 9 10 12 17 20 21 19 16 14 11 7 3 1
0 0 0 0 0 0 0 0 0 1 5 10 14 18 19 15 10 8 7 12 33 60 65 51 42 32 17 16 25 28 27 27 27 25 26 22 13 10 16 26 38 41 33 26 23 21 17 9 3
0 0 0 0 0 0 0 0 1 5 13 20 23 22 19 16 15 16 14 16 29 50 60 59 55 42 22 25 39 34 29 36 38 39 46 42 26 18 25 45 65 69 56 44 38 35 28 15 6
0 0 0 0 0 0 0 1 3 10 19 26 29 29 25 22 24 27 27 29 37 47 56 62 68 61 44 48 60 47 38 51 55 54 64 63 47 37 44 66 84 84 74 60 53 48 37 21 12
0 0 0 0 0 0 0 1 7 16 24 29 34 40 40 36 37 42 47 50 57 60 60 66 76 78 71 72 76 65 58 68 73 74 79 79 71 63 66 79 87 84 76 65 57 54 44 31 23
0 0 0 0 0 0 1 3 10 20 28 33 41 53 61 59 56 61 66 69 74 76 74 77 84 88 86 85 85 80 78 79 84 87 89 88 86 82 80 83 84 78 73 68 62 57 54 46 38
0 0 0 0 0 0 2 4 12 21 29 36 46 61 76 79 76 78 81 82 84 86 85 86 89 91 91 89 89 88 86 84 85 89 90 89 89 86 83 81 79 75 75 75 70 65 62 57 49
0 0 0 0 0 0 1 5 13 22 31 41 51 63 75 83 86 87 87 87 87 87 89 90 91 91 90 90 88 86 84 82 83 86 87 85 84 84 82 79 77 77 78 77 72 66 62 57 53
0 0 0 0 0 0 1 8 19 29 39 48 55 61 66 73 81 85 84 83 84 86 88 89 89 89 88 87 84 83 83 81 79 79 78 74 75 78 77 74 73 76 78 73 66 60 55 52 50
0 0 0 0 0 1 5 14 26 36 44 52 56 57 55 58 67 73 74 76 79 82 84 84 85 86 84 82 82 83 84 82 75 69 65 62 63 66 66 61 62 66 69 66 58 52 50 47 44
0 0 0 0 0 4 10 20 30 38 44 49 50 48 45 44 46 52 58 62 68 74 77 79 81 82 80 79 81 81 81 78 70 62 56 52 51 51 49 46 47 50 54 55 49 45 46 42 39
0 0 0 0 1 6 16 26 33 38 42 42 38 35 31 27 26 32 39 43 50 59 66 71 74 76 75 75 77 76 72 67 62 57 51 45 39 36 32 30 33 36 39 42 41 40 39 35 32
0 0 0 0 1 8 20 32 38 38 35 29 23 20 18 15 15 19 22 25 31 41 50 56 61 65 67 67 66 65 58 52 49 49 45 36 28 25 20 19 21 23 26 31 34 35 31 26 24
0 0 0 1 2 8 21 35 38 31 21 13 9 10 10 10 12 13 12 13 18 25 33 39 46 53 56 54 52 49 41 35 35 38 35 27 21 18 17 15 15 16 19 23 26 26 23 20 18
0 0 0 0 1 4 14 27 31 22 10 5 4 7 8 8 9 8 7 9 13 17 23 30 38 44 48 47 44 39 33 29 30 32 29 21 16 15 16 16 16 17 18 19 20 20 20 17 15
0 0 0 0 0 1 6 14 17 12 6 5 6 9 9 8 9 9 8 10 14 15 19 27 34 39 43 43 39 38 36 33 33 31 27 20 14 13 14 14 16 19 19 18 17 19 21 20 17
0 0 0 0 0 0 1 5 8 6 5 6 7 7 9 9 11 9 7 9 13 13 15 21 29 35 37 36 35 36 36 36 33 28 24 20 15 13 11 11 13 16 18 18 17 18 22 22 21
0 0 0 0 0 0 1 5 6 4 4 5 4 3 4 7 8 7 6 7 9 10 11 14 19 25 27 28 30 31 31 29 24 18 16 16 14 13 13 12 11 13 14 16 16 17 18 20 20
0 0 0 0 0 0 3 6 5 2 1 2 1 0 1 2 4 4 4 4 5 5 7 8 11 15 18 20 22 24 25 21 13 9 8 8 10 12 14 14 14 13 12 13 14 14 14 14 15
0 0 0 0 0 0 2 5 4 1 0 0 0 0 0 1 1 1 2 2 3 3 4 5 6 9 11 13 14 16 17 14 9 8 7 7 9 11 12 13 14 14 12 11 11 11 11 11 10
0 0 0 0 0 0 1 3 3 1 0 0 0 0 0 0 0 0 0 1 2 2 3 3 4 6 8 8 8 9 9 9 8 8 9 9 9 10 9 9 10 12 13 12 10 9 9 9 8
0 0 0 0 0 0 0 1 1 1 0 0 0 0 0 0 0 0 0 0 1 1 1 1 2 3 5 5 5 5 6 7 8 8 8 8 7 7 7 5 5 8 11 10 7 5 6 6 5
0 0 0 0 0 0 0 0 0 0 0 0 0 0 0 0 0 0 0 0 0 0 0 0 1 1 2 3 4 5 6 8 7 7 7 6 5 5 5 4 3 4 6 6 4 3 4 4 4

GEFSSGP_con_probscp_102.txt.gz
Probability
0 0 0 0 0 0 0 0 0 0 0 1 1 1 0 0 0 1 2 4 7 12 19 25 29 29 23 16 11 7 5 3 1 0 0 0 0 0 0 0 0 0 0 0 0 0 0 0 0
0 0 0 0 0 0 0 0 0 0 0 1 1 0 0 0 1 2 4 8 13 17 21 24 27 28 25 20 14 10 6 3 1 1 0 0 0 0 0 0 0 0 0 0 0 0 0 0 0
0 0 0 0 0 0 0 0 0 0 1 1 1 0 0 0 2 6 11 17 23 25 25 28 32 33 31 26 20 13 8 4 3 2 1 1 0 0 0 0 0 0 0 0 0 0 0 0 0
0 0 0 0 0 0 0 0 0 0 1 2 2 1 1 2 8 16 21 24 28 29 29 35 41 42 40 36 29 20 12 7 3 2 1 1 0 0 0 0 0 0 0 0 0 0 0 0 0
0 0 0 0 0 0 1 1 1 1 2 3 3 2 1 6 18 27 24 21 25 27 29 38 47 49 47 46 40 30 20 11 5 1 1 1 1 1 0 0 0 0 0 0 0 0 0 0 0
0 0 0 0 0 0 0 1 1 3 4 6 6 4 2 9 23 29 22 15 18 24 28 35 44 47 47 48 47 39 29 18 9 3 2 2 3 3 2 1 1 0 0 0 0 0 0 0 0
0 0 0 0 0 0 0 0 2 6 9 10 10 7 3 8 21 30 28 21 20 24 28 32 36 39 41 46 48 43 35 25 16 11 8 5 4 5 5 5 5 3 2 1 1 0 0 0 0
0 0 0 0 0 0 0 1 3 10 16 19 18 12 5 8 24 40 46 40 31 26 25 27 29 31 34 38 42 39 33 29 24 20 16 10 6 5 6 8 9 9 7 4 2 2 2 1 0
0 0 0 0 0 0 1 2 6 15 25 31 31 24 15 19 35 53 62 58 43 29 21 20 24 28 28 28 30 29 27 27 25 23 20 15 9 4 4 6 10 12 10 7 6 7 7 5 3
0 0 0 0 0 1 3 6 12 23 33 41 45 42 37 40 51 64 70 66 53 36 23 19 23 27 26 24 25 25 24 24 24 21 21 20 13 7 6 7 11 14 14 12 12 15 16 14 11
0 0 0 1 0 1 5 12 22 31 39 47 54 58 58 60 64 71 74 69 59 45 32 26 26 28 26 25 29 30 26 24 23 21 23 27 20 13 12 14 18 23 25 24 25 28 29 25 21
0 0 0 1 1 3 9 19 32 42 49 57 64 67 68 69 69 71 72 68 59 51 42 34 32 31 29 30 37 37 31 29 28 25 27 32 27 19 16 18 24 33 39 38 39 39 39 35 29
0 0 0 1 2 6 15 25 37 53 63 69 73 71 68 66 65 65 65 64 58 52 49 44 41 41 39 41 47 47 42 41 40 34 32 33 30 23 18 16 23 35 43 44 43 43 41 36 31
0 0 0 1 2 7 17 26 39 57 70 73 71 67 61 58 58 58 59 60 59 56 54 52 50 51 51 52 55 55 51 50 48 40 35 34 32 28 22 17 18 25 34 37 38 39 36 31 27
0 0 0 0 1 7 17 28 39 56 67 68 63 58 52 49 50 50 52 56 57 57 57 56 54 55 55 54 54 53 51 48 43 36 32 31 30 27 23 16 14 16 21 25 28 30 29 25 22
0 0 0 0 2 8 19 31 42 52 59 58 52 47 42 39 39 40 43 47 50 51 53 54 53 53 52 49 46 45 45 42 35 27 24 23 23 22 18 13 11 11 12 15 19 21 22 21 19
0 0 0 1 4 11 23 37 43 46 48 46 41 35 31 29 29 28 30 33 35 37 40 41 42 43 43 40 37 35 35 32 26 22 19 18 18 16 12 9 9 9 9 11 13 14 16 18 19
0 0 0 2 7 17 31 40 39 35 34 33 30 25 21 20 18 16 15 16 17 18 21 23 25 27 27 26 25 24 22 19 17 16 14 14 14 12 8 6 6 7 8 9 10 10 11 13 14
0 0 0 3 10 21 31 32 26 20 19 19 17 15 13 9 7 6 5 5 5 5 7 10 14 16 15 15 14 13 11 9 8 7 7 7 8 7 4 3 4 4 6 7 7 7 7 8 8
0 0 1 4 10 17 20 17 11 8 7 7 8 8 5 2 1 1 2 2 2 1 2 6 10 12 11 10 9 7 6 5 4 3 3 4 4 4 4 3 3 3 4 5 5 6 5 5 5
0 0 1 3 6 9 8 6 3 3 2 2 4 4 2 0 0 0 1 2 2 1 2 6 9 10 9 8 7 6 4 4 3 3 3 3 4 4 3 3 3 3 3 3 4 4 4 4 4
0 0 1 2 2 2 3 2 1 2 2 2 2 1 1 0 0 0 1 2 2 2 3 5 6 6 5 4 4 3 3 3 2 3 3 3 3 3 2 2 3 3 3 3 3 3 3 3 3
0 0 0 0 0 0 0 0 0 1 1 1 1 0 0 0 0 0 1 2 3 3 4 4 3 2 2 1 1 1 1 1 1 1 2 2 2 2 2 2 2 2 2 3 3 3 2 2 2
0 0 0 0 0 0 0 0 0 0 0 0 0 0 0 0 0 0 1 1 2 2 2 2 1 0 0 0 0 0 0 0 0 0 1 1 1 1 2 2 1 1 1 1 2 1 1 1 1
0 0 0 0 0 0 0 0 0 0 0 0 0 0 0 0 0 0 0 0 0 0 1 1 0 0 0 0 0 0 0 0 0 0 0 0 0 0 1 1 0 0 0 0 0 0 0 0 0
0 0 0 0 0 0 0 0 0 0 0 0 0 0 0 0 0 0 0 0 0 0 0 0 0 0 0 0 0 0 0 0 0 0 0 0 0 0 0 0 0 0 0 0 0 0 0 0 0
0 0 0 0 0 0 0 0 0 0 0 0 0 0 0 0 0 0 0 0 0 0 0 0 0 0 0 0 0 0 0 0 0 0 0 0 0 0 0 0 0 0 0 0 0 0 0 0 0
0 0 0 0 0 0 0 0 0 0 0 0 0 0 0 0 0 0 0 0 0 0 0 0 0 0 0 0 0 0 0 0 0 0 0 0 0 0 0 0 0 0 0 0 0 0 0 0 0
0 0 0 0 0 0 0 0 0 0 0 0 0 0 0 0 0 0 0 0 0 0 0 0 0 0 0 0 0 0 0 0 0 0 0 0 0 0 0 0 0 0 0 0 0 0 0 0 0
0 0 0 0 0 0 0 0 0 0 0 0 0 0 0 0 0 0 0 0 0 0 0 0 0 0 0 0 0 0 0 0 0 0 0 0 0 0 0 0 0 0 0 0 0 0 0 0 0

GEFSSGP_con_probscp_108.txt.gz
Probability
0 0 0 0 0 0 0 0 0 0 0 0 0 0 0 0 0 0 0 2 9 17 21 23 22 19 14 11 10 7 4 4 4 3 1 0 0 0 0 0 0 0 0 0 0 0 0 0 0
0 0 0 0 0 0 0 0 0 0 0 0 0 0 0 0 0 0 2 6 14 20 22 21 22 21 18 15 12 9 5 4 3 1 0 0 0 0 0 0 0 0 0 0 0 0 0 0 0
0 0 0 0 0 0 0 0 0 0 0 0 0 0 0 0 0 1 6 15 24 27 24 22 23 24 22 18 13 10 7 4 2 1 0 0 0 0 0 0 0 0 0 0 0 0 0 0 0
0 0 0 0 0 0 0 0 0 0 0 0 0 1 1 1 1 4 12 25 35 36 29 25 26 27 25 21 16 12 8 5 3 1 0 0 0 0 0 0 0 0 0 0 0 0 0 0 0
0 0 0 0 0 0 0 0 0 0 0 0 0 1 2 3 3 7 15 27 38 40 34 32 34 32 29 26 21 16 11 7 4 1 0 0 0 0 0 0 0 0 0 0 0 0 0 0 0
1 1 0 0 0 0 0 0 0 0 0 0 0 1 3 5 6 9 15 24 34 41 41 40 41 39 34 31 26 20 15 11 7 3 1 0 0 0 0 0 0 0 0 0 0 0 0 0 0
0 0 0 0 0 0 0 0 0 1 1 1 0 0 2 5 8 12 18 24 31 41 46 45 42 40 37 36 31 26 20 15 10 5 3 1 1 0 0 0 0 0 0 0 0 0 0 0 0
0 0 0 0 0 0 0 0 1 2 4 5 4 3 6 11 16 20 24 27 31 38 42 42 41 40 41 40 36 32 26 20 14 9 6 4 3 1 0 0 0 0 0 0 0 0 0 0 0
1 0 0 0 0 0 0 1 2 4 8 13 15 15 21 31 36 34 33 32 32 32 32 33 37 42 44 42 39 34 29 25 20 15 13 11 9 5 3 2 1 1 1 1 0 0 1 2 2
1 0 0 1 1 1 1 2 3 6 13 20 24 30 40 51 55 49 42 37 33 30 26 25 29 37 42 41 39 37 35 33 30 26 22 20 17 13 10 7 6 4 3 3 3 4 7 10 10
1 0 1 2 2 2 3 7 11 17 24 28 33 43 54 60 59 53 45 38 33 31 27 23 24 28 33 36 38 41 41 40 38 34 30 28 26 24 20 16 13 11 8 8 8 10 15 19 19
0 0 1 2 3 6 11 19 29 37 40 42 48 56 60 59 53 46 39 33 30 29 27 23 22 25 27 30 35 40 42 41 38 37 37 36 34 33 29 24 21 19 16 14 14 15 18 23 25
0 0 2 4 7 14 24 33 41 48 51 55 60 61 58 52 45 39 32 28 26 24 23 22 22 26 29 29 30 33 36 37 37 38 38 38 37 36 33 29 26 23 20 17 15 14 16 21 26
0 1 3 7 11 19 31 38 41 45 51 56 59 56 51 44 39 36 30 27 25 22 22 23 24 28 31 29 27 27 28 29 31 31 32 32 32 32 31 30 27 22 18 15 13 13 14 18 23
0 1 3 5 9 17 28 35 35 34 40 46 47 44 40 35 32 29 25 23 22 20 22 25 25 26 28 27 24 22 21 20 20 20 21 22 22 24 25 24 22 18 14 12 13 14 15 17 18
0 0 1 2 6 13 22 28 26 25 29 33 32 29 26 24 22 19 16 16 15 14 15 19 20 18 18 17 17 17 17 15 13 12 12 12 13 15 15 14 13 11 9 10 12 14 15 14 14
0 0 0 1 5 12 20 24 22 19 21 23 20 16 14 13 12 10 9 10 9 7 5 7 9 8 7 7 8 10 11 10 9 7 7 7 7 9 9 8 6 5 5 7 8 10 10 9 8
0 0 0 2 5 12 19 23 20 16 14 14 11 8 6 5 5 4 4 6 5 3 1 0 1 1 1 2 3 5 5 5 5 4 4 4 4 5 5 5 4 3 3 4 5 5 6 6 7
0 0 1 2 5 10 14 15 12 9 7 6 5 5 3 2 2 2 2 3 3 1 0 0 0 0 0 1 2 3 3 3 3 3 3 3 3 3 4 4 3 3 3 3 3 3 4 5 6
1 1 1 2 4 6 6 5 3 3 3 3 3 3 2 1 1 1 0 1 1 0 0 0 0 0 0 0 1 1 2 3 3 3 3 3 3 3 3 3 3 3 3 3 3 3 3 3 4
0 1 1 1 1 2 1 0 0 0 1 1 1 1 1 0 0 0 0 0 0 0 0 0 0 0 0 0 0 0 1 1 2 2 3 3 3 3 3 3 3 3 3 3 3 3 3 3 3
0 0 1 0 0 0 0 0 0 0 0 0 0 0 0 0 0 0 0 0 0 0 0 0 0 0 0 0 0 0 0 0 1 1 1 2 3 3 3 3 3 3 1 1 2 3 3 3 3
0 0 0 0 0 0 0 0 0 0 0 0 0 0 0 0 0 0 0 0 0 0 0 0 0 0 0 0 0 0 0 0 0 0 0 1 1 2 2 3 3 2 1 0 1 1 2 2 2
0 0 0 0 0 0 0 0 0 0 0 0 0 0 0 0 0 0 0 0 0 0 0 0 0 0 0 0 0 0 0 0 0 0 0 0 0 1 1 1 2 2 1 0 0 0 1 1 1
0 0 0 0 0 0 0 0 0 0 0 0 0 0 0 0 0 0 0 0 0 0 0 0 0 0 0 0 0 0 0 0 0 0 0 0 0 0 0 0 1 1 0 0 0 0 0 0 0
0 0 0 0 0 0 0 0 0 0 0 0 0 0 0 0 0 0 0 0 0 0 0 0 0 0 0 0 0 0 0 0 0 0 0 0 0 0 0 0 0 0 0 0 0 0 0 0 0
0 0 0 0 0 0 0 0 0 0 0 0 0 0 0 0 0 0 0 0 0 0 0 0 0 0 0 0 0 0 0 0 0 0 0 0 0 0 0 0 0 0 0 0 0 0 0 0 0
0 0 0 0 0 0 0 0 0 0 0 0 0 0 0 0 0 0 0 0 0 0 0 0 0 0 0 0 0 0 0 0 0 0 0 0 0 0 0 0 0 0 0 0 0 0 0 0 0
0 0 0 0 0 0 0 0 0 0 0 0 0 0 0 0 0 0 0 0 0 0 0 0 0 0 0 0 0 0 0 0 0 0 0 0 0 0 0 0 0 0 0 0 0 0 0 0 0
0 0 0 0 0 0 0 0 0 0 0 0 0 0 0 0 0 0 0 0 0 0 0 0 0 0 0 0 0 0 0 0 0 0 0 0 0 0 0 0 0 0 0 0 0 0 0 0 0